Regional Weather Roundup
Issued by NWS Sioux Falls, SD

Home | Current Version | Previous Version | Graphics & Text | Print | Product List | Glossary On
Versions: 1 2 3 4 5 6 7 8 9 10 11 12 13 14 15 16 17 18 19 20 21 22 23 24 25 26 27 28 29 30 31 32 33 34 35 36 37 38 39 40 41 42 43 44 45 46 47 48 49 50
000
ASUS43 KFSD 241802
RWRFSD

WEATHER ROUNDUP FOR SE SOUTH DAKOTA/SW MINNESOTA/NW IOWA
NATIONAL WEATHER SERVICE SIOUX FALLS SD
1200 PM CST FRI FEB 24 2017

NOTE: "FAIR" INDICATES FEW OR NO CLOUDS BELOW 12,000 FEET WITH NO
SIGNIFICANT WEATHER AND OR OBSTRUCTIONS TO VISIBILITY.


SDZ038>040-050-052>070-241900-
SOUTHEAST SOUTH DAKOTA

CITY           SKY/WX    TMP DP  RH WIND       PRES   REMARKS
BROOKINGS      MOSUNNY   25  11  55 N26G35    29.93F WCI   9
CHAMBERLAIN    CLOUDY    28  17  63 N15G24    30.07S WCI  16
6HR MIN TEMP:  22; 6HR MAX TEMP:  28;

HURON          CLOUDY    29  12  49 N22G30    30.05F WCI  15
6HR MIN TEMP:  20; 6HR MAX TEMP:  29;

MADISON        FAIR      25  14  63 N29G35    29.94S WCI   8
MITCHELL       CLOUDY    28  15  58 N24G35    30.03S WCI  14
6HR MIN TEMP:  22; 6HR MAX TEMP:  28;

SIOUX FALLS    CLOUDY    24  14  65 N22G29    29.93R WCI   9
6HR MIN TEMP:  21; 6HR MAX TEMP:  24; 6HR PCP: TRACE;

WINNER         MOCLDY    25  15  66 N16       30.08S WCI  12
YANKTON        CLOUDY    25  12  58 N21       29.97R WCI  10
$$

MNZ071-072-080-081-089-090-097-098-241900-
SOUTHWEST MINNESOTA

CITY           SKY/WX    TMP DP  RH WIND       PRES   REMARKS
FAIRMONT       SNOW      23  20  88 N25G32    29.80F VSB 1/2 WCI   7
JACKSON        CLOUDY    23  18  80 N17G26    29.81F HAZE    WCI   9
LUVERNE        CLOUDY    23  12  63 N17G29    29.90S WCI   9
MARSHALL       CLOUDY    24  13  62 N23G33    29.93F WCI   9
6HR MIN TEMP:  21; 6HR MAX TEMP:  24;

MONTEVIDEO     CLOUDY    27  12  54 NE28      29.97F WCI  11
PIPESTONE      CLOUDY    25  10  54 N20G33    29.89S WCI  11
REDWOOD FALLS  CLOUDY    26  11  52 N14G25    29.90F WCI  14
TRACY          CLOUDY    25  15  66 N23G33    29.90F WCI  10
WINDOM         MOSUNNY   23  16  74 N28       29.84F HAZE    WCI   6
WORTHINGTON    CLOUDY    22  16  78 N29G36    29.84S HAZE    WCI   4
$$

IAZ001>003-012>014-020>022-031-032-NEZ013-014-SDZ071-241900-
NORTHWEST IOWA

CITY           SKY/WX    TMP DP  RH WIND       PRES   REMARKS
CHEROKEE       CLOUDY    23  20  88 N25G31    29.84R WCI   7
DENISON        HVY RAIN  23  21  93 N20G30    29.76S VSB 1/4 WCI   8
ESTHERVILLE    FOG       21  20  96 N22G35    29.80S VSB 1/2 WCI   5
LE MARS        MIX PCPN  23  19  86 N17G23    29.90R WCI   9
SHELDON        CLOUDY    23  23 100 N26G36    29.85R FOG     WCI   6
SIOUX CITY     HAZE      24  19  81 N25G32    29.88R VSB 3/4 WCI   8
6HR MIN TEMP:  25; 6HR MAX TEMP:  27;

SPENCER        FOG       23  19  85 N22       29.83R VSB 3/4 WCI   8
6HR MIN TEMP:  22; 6HR MAX TEMP:  25;

STORM LAKE     SNOW      21  19  93 N23G41    29.77F VSB 1/2 WCI   5
$$

ABBREVIATIONS USED IN REMARKS
   TC - TEMPERATURE IN CELSIUS
  WCI - WIND CHILL INDEX
   HX - HEAT INDEX
  VSB - VISIBILITY




USA.gov is the U.S. government's official web portal to all federal, state and local government web resources and services.